Location: Big Meadows
(38.5260°N, 78.4400°W)
Time: 07:24:54
(UTC-04:00)

Daily predictions for brighter satellites

Satellite Brightness Start Highest point End
(mag) Time Altitude Azimuth Time Altitude Azimuth Time Altitude Azimuth
EO 1 Del DPAF 3.8 20:17:27 10° N 20:21:14 63° WNW 20:25:00 10° SSW
Nadezhda 3 Rocket 4.4 20:16:03 10° N 20:22:03 44° ENE 20:28:04 10° SSE
Cosmos 2278 Rocket 3.7 20:19:00 10° N 20:23:10 20° NE 20:27:20 10° ESE
Cosmos 1633 Rocket 3.8 20:23:16 10° NNE 20:27:13 33° ENE 20:31:09 10° SE
Cosmos 2221 3.9 20:29:01 10° SSW 20:33:05 44° W 20:37:11 10° N
NOSS 2-1 (C) 3.9 20:32:32 10° SW 20:36:06 58° NW 20:39:57 10° NNE
NOSS 2-1 (D) 4.0 20:33:32 10° SW 20:37:05 55° NW 20:40:56 10° NNE
BREEZE-M DEB (TANK) 4.1 20:33:33 10° NW 20:38:12 29° NNE 20:40:32 10° ENE
Cosmos 1340 2.6 20:34:30 10° S 20:38:17 90° E 20:42:06 10° N
Cosmos 2228 Rocket 4.1 20:38:09 10° SE 20:41:48 26° E 20:45:28 10° NNE
Thor Agena Rocket 3.6 20:37:33 10° NNE 20:42:48 68° ESE 20:48:03 10° S
In-Cosmos 22 Rocket 4.3 20:37:54 10° NNW 20:43:22 78° W 20:48:41 10° S
SL-24 R/B - RUBIN 2 3.5 20:39:01 10° NNW 20:43:23 86° ENE 20:47:46 10° SSE
HJ-1C 4.3 20:40:59 10° S 20:44:13 49° W 20:47:31 10° NNW
ATLAS 2AS CENTAUR R/B 3.3 20:38:11 10° NNW 20:45:54 52° NE 20:52:15 13° SE
OAO 2 Rocket 3.9 20:45:46 10° W 20:50:46 48° SSW 20:54:42 16° ESE
Cosmos 1805 Rocket 4.2 20:47:58 10° NNW 20:52:15 58° W 20:56:29 10° S
Cosmos 1825 3.7 20:50:49 10° NNE 20:53:37 19° ENE 20:54:53 17° E
Spot 2 Rocket 3.9 20:49:02 10° SE 20:53:44 43° ENE 20:58:32 10° N
Cosmos 1328 Rocket 3.6 20:51:27 10° S 20:55:46 58° E 21:00:09 10° NNE
Cosmos 2154 Rocket 4.1 20:51:00 10° S 20:57:16 84° W 21:03:32 10° N
ATLAS CENTAUR R/B 1.0 20:54:24 10° SSW 20:58:02 86° ESE 21:01:50 10° NNE
SL-8 R/B 3.6 20:53:37 10° SW 20:58:22 72° SE 21:03:10 10° ENE
SL-16 R/B 3.4 21:01:33 17° ESE 21:03:06 19° E 21:07:01 10° NE
Timation 1 Rocket 4.4 20:58:34 10° NNW 21:04:33 80° WSW 21:10:31 10° SSE
Resurs 01 Rocket 1.6 21:02:06 10° SSE 21:06:31 76° ENE 21:10:57 10° N
ARGOS 4.3 21:06:46 19° ESE 21:09:12 26° ENE 21:13:32 10° NNE
Cosmos 1470 Rocket 3.7 21:06:07 10° N 21:10:25 52° E 21:13:19 20° SSE
SJ-6B 4.5 21:06:42 10° SSW 21:10:25 34° W 21:14:05 10° NNW
Haruka 4.5 21:06:41 10° W 21:13:19 25° SW 21:15:51 15° SSE
Meteor 2-3 Rocket 3.7 21:08:43 10° N 21:14:21 85° E 21:20:00 10° S
Cosmos 1939 Rocket 3.1 21:13:15 10° S 21:17:05 66° W 21:20:58 10° NNW
Cosmos 2341 Rocket 4.1 21:14:15 10° S 21:20:37 82° W 21:26:59 10° N
Cosmos 1869 3.7 21:19:47 29° SE 21:21:12 40° E 21:25:00 10° NNE
NOSS 0 Rocket 3.9 21:16:12 10° SSW 21:22:23 88° WNW 21:28:37 10° NNE
Meteor 2-10 Rocket 4.2 21:20:50 21° SSE 21:24:09 40° E 21:29:32 10° NNE
Cosmos 2218 Rocket 4.1 21:19:12 10° S 21:25:24 59° E 21:31:41 10° NNE
Cosmos 1980 3.7 21:23:24 10° SSW 21:29:06 87° WNW 21:34:49 10° NNE
USA 267 3.9 21:24:35 10° ENE 21:30:07 29° SE 21:35:38 10° S
ERS-1 Rocket 4.0 21:30:08 25° E 21:31:11 27° ENE 21:35:22 10° N
Cosmos 407 Rocket 4.4 21:28:38 10° N 21:33:09 30° ENE 21:34:17 28° E
Cosmos 2366 rocket 3.9 21:31:03 11° S 21:36:54 66° E 21:43:07 10° NNE
Cosmos 1408 2.4 21:33:31 10° N 21:37:12 83° E 21:38:11 47° SSE
H-2A R/B 2.7 21:36:33 31° E 21:37:36 34° ENE 21:42:04 10° N
Cosmos 220 Rocket 4.5 21:34:05 10° NNW 21:38:19 56° WSW 21:40:43 24° S
Cosmos 1933 Rocket 3.5 21:34:38 10° N 21:39:02 89° WSW 21:41:04 31° S
Cosmos 2333 Rocket 3.4 21:34:41 10° SW 21:40:04 44° WNW 21:45:28 10° N
Cosmos 1151 Rocket 3.4 21:36:47 10° SSW 21:41:00 64° W 21:45:14 10° N
Cosmos 1371 Rocket 3.9 21:35:49 10° S 21:41:06 74° ESE 21:46:27 10° NNE
Cosmos 1455 4.1 21:38:07 10° SW 21:41:31 30° WNW 21:44:58 10° NNW
USA 186 4.2 21:41:26 10° WSW 21:42:07 11° W 21:42:50 10° WNW
Cosmos 1844 Rocket 4.4 21:40:00 10° NW 21:44:45 28° WSW 21:49:28 10° SSW
SL-8 Rocket 4.1 21:39:42 10° S 21:46:01 79° W 21:52:19 10° N
MetOp-A 4.1 21:51:20 43° SE 21:52:58 65° ENE 21:58:16 10° N
Cosmos 2219 Rocket 4.2 21:49:55 10° WSW 21:54:46 29° WNW 21:59:38 10° N
Cosmos 1339 Rocket 4.4 21:49:13 10° N 21:55:19 72° E 21:57:44 38° SSE
Cosmos 2237 Rocket 2.9 21:51:01 10° SW 21:56:31 55° WNW 22:02:03 10° NNE
Cosmos 1869 Rocket 4.1 21:57:13 10° N 22:00:54 43° NE 22:00:54 43° NE
Cosmos 2056 Rocket 3.5 21:57:10 10° SSW 22:02:35 89° WNW 22:08:01 10° NNE
Genesis I 4.4 22:00:36 10° NW 22:04:21 36° WSW 22:05:02 33° SW
Cosmos 2278 Rocket 2.6 22:02:04 10° NNW 22:07:39 58° WSW 22:09:51 35° S
Helios 1A 4.0 22:08:42 35° NE 22:08:42 35° NE 22:11:47 10° N
Terra 3.7 22:09:24 17° NE 22:09:24 17° NE 22:11:41 10° NNE
Cosmos 2098 Rocket 3.5 22:07:13 28° SSW 22:09:36 61° W 22:13:30 10° N
Cosmos 1862 4.1 22:06:47 10° N 22:09:45 42° NNE 22:09:45 42° NNE
Cosmos 405 Rocket 4.0 22:15:05 32° NNE 22:15:05 32° NNE 22:17:18 10° NNE
Cosmos 405 4.2 22:15:09 10° NNW 22:17:29 39° NNW 22:17:29 39° NNW
Cosmos 1624 Rocket 4.5 22:14:32 10° SSW 22:19:39 58° WNW 22:24:47 10° N
Cosmos 1190 Rocket 3.8 22:19:21 10° NNW 22:24:39 86° WSW 22:24:56 80° S
ATLAS 2A CENTAUR R/B 4.1 22:11:40 10° WSW 22:26:46 37° S 22:27:46 37° SSE
SPOT 5 3.4 22:28:34 45° NNE 22:28:34 45° NNE 22:31:58 10° N
Cosmos 1140 Rocket 4.0 22:22:41 10° N 22:27:07 46° NE 22:27:07 46° NE
Lacrosse 5 4.1 22:25:57 10° NNW 22:28:50 15° NNE 22:30:32 13° NE
Cosmos 1825 4.2 22:26:06 10° NW 22:29:06 23° W 22:29:46 21° WSW
ATLAS 2AS CENTAUR R/B 4.0 22:29:48 10° NW 22:36:33 34° WSW 22:39:43 24° SSW
Cosmos 1954 Rocket 4.3 22:32:22 10° NNW 22:36:48 55° NNE 22:36:48 55° NNE
GEOS 3 Rocket 3.8 22:36:20 10° NNE 22:41:40 72° NW 22:43:44 38° SW
SL-16 R/B 2.8 22:43:11 22° SW 22:46:43 53° WNW 22:52:16 10° NNE
ARGOS 4.2 22:48:16 35° WSW 22:49:13 38° W 22:54:12 10° NNW
Cosmos 2344 3.4 22:43:07 10° SSW 22:50:46 88° ESE 22:58:59 10° NE
SL-19 R/B 4.4 22:53:15 70° NNE 22:53:15 70° NNE 22:58:15 10° NNW
Cosmos 1000 Rocket 4.4 22:48:06 10° N 22:54:15 88° NNW 22:54:15 88° NNW
Cosmos 1943 Rocket 4.0 22:51:22 10° N 22:54:37 19° NE 22:54:37 19° NE
Cosmos 1821 Rocket 3.9 22:57:37 83° WSW 22:57:42 84° W 23:04:03 10° N
NOSS 3-4 (A) 3.9 23:00:22 10° NW 23:07:27 65° WSW 23:07:53 64° SW
NOSS 3-4 (C) 3.9 23:00:28 10° NW 23:07:33 66° WSW 23:07:59 64° SW
SPOT 1/Viking Rocket 4.3 23:09:39 51° NW 23:09:39 51° NW 23:13:50 10° NNW
ERS-1 Rocket 4.3 23:10:08 32° W 23:10:08 32° W 23:14:19 10° NNW
USA 267 3.3 23:06:54 10° NE 23:13:26 72° NW 23:19:55 10° WSW
Cosmos 2123 Rocket 4.3 23:10:37 10° N 23:15:50 62° NNE 23:15:50 62° NNE
H-2A R/B 3.7 23:17:10 25° W 23:17:10 25° W 23:21:09 10° NW
Cosmos 2369 Rocket 3.4 23:21:31 10° NNW 23:25:18 37° NNE 23:25:18 37° NNE
CZ-2C R/B 4.3 23:37:07 10° NNE 23:39:33 28° NNE 23:39:33 28° NNE
CZ-4C R/B 3.5 23:44:41 36° N 23:44:41 36° N 23:48:33 10° NNE
USA 234 3.9 23:45:37 46° NE 23:45:37 46° NE 23:51:48 10° NW
Terra 3.9 23:48:18 25° NW 23:48:18 25° NW 23:50:27 10° NNW
